York, PA

3:26 PM EDT on May 22, 2017 (GMT -0400)
York

Weather History for KTHV - January, 2014

Change the Weather History Date:

Friday, January 31, 2014

  Actual Average Record
Temperature  
Mean Temperature 32 °F -  
Max Temperature 39 °F 0 °F 62 °F (2012)
Min Temperature 24 °F - 3 °F (2000)
Degree Days  
Heating Degree Days 34    
Moisture  
Dew Point 18 °F    
Average Humidity 59    
Maximum Humidity 79    
Minimum Humidity 43    
Precipitation  
Precipitation 0.00 in - - ()
Sea Level Pressure  
Sea Level Pressure 30.18 in    
Wind  
Wind Speed 2 mph (SW)    
Max Wind Speed 6 mph    
Max Gust Speed -    
Visibility 10 miles    
Events      
Averages and records for this station are not official NWS values.
T = Trace of Precipitation, MM = Missing Value Source: NWS Daily Summary

Daily Weather History Graph

Daily Weather History Graph

Search for Another Location

Airport or City:

Trip Planner

Search our weather history database for the weather conditions in past years. The results will help you decide how hot, cold, wet, or windy it might be!

Date:

Astronomy

Jan. 31, 2014 Rise Set
Actual Time 7:16 AM EST 5:25 PM EST
Civil Twilight 6:48 AM EST 5:54 PM EST
Nautical Twilight 6:15 AM EST 6:26 PM EST
Astronomical Twilight 5:43 AM EST 6:58 PM EST
Moon 7:25 AM EST (1/31) 6:47 PM EST (1/31)
Length of Visible Light 11h 06m
Length of Day
10h 08m
New Moon, 1% of the Moon is Illuminated
Jan 31
New Moon
Feb 6
First Quarter
Feb 14
Full
Feb 22
Last Quarter
Mar 1
New

Hourly Weather History & Observations

Time (EST) Temp. Windchill Dew Point Humidity Pressure Visibility Wind Dir Wind Speed Gust Speed Precip Events Conditions
12:53 AM 24.1 °F - 7.0 °F 48% 30.15 in 10.0 mi Calm Calm - N/A   Clear
1:53 AM 25.0 °F 18.1 °F 7.0 °F 46% 30.16 in 10.0 mi WSW 5.8 mph - N/A   Clear
2:53 AM 25.0 °F 18.1 °F 9.0 °F 51% 30.14 in 10.0 mi SSW 5.8 mph - N/A   Clear
3:53 AM 25.0 °F 20.7 °F 9.0 °F 51% 30.12 in 10.0 mi SW 3.5 mph - N/A   Clear
4:53 AM 26.1 °F 20.5 °F 10.0 °F 51% 30.12 in 10.0 mi SSW 4.6 mph - N/A   Overcast
5:53 AM 26.1 °F - 12.9 °F 58% 30.13 in 10.0 mi Calm Calm - N/A   Overcast
7:53 AM 26.1 °F - 15.1 °F 63% 30.16 in 10.0 mi Calm Calm - N/A   Overcast
8:53 AM 26.1 °F - 15.1 °F 63% 30.19 in 10.0 mi Calm Calm - N/A   Overcast
9:53 AM 27.0 °F - 17.1 °F 66% 30.19 in 10.0 mi Calm Calm - N/A   Mostly Cloudy
10:53 AM 30.0 °F - 14.0 °F 51% 30.19 in 10.0 mi Calm Calm - N/A   Clear
11:53 AM 32.0 °F 28.7 °F 16.0 °F 52% 30.19 in 10.0 mi NNE 3.5 mph - N/A   Scattered Clouds
12:53 PM 34.0 °F - 17.1 °F 50% 30.16 in 10.0 mi Calm Calm - N/A   Clear
1:53 PM 37.9 °F - 18.0 °F 45% 30.14 in 10.0 mi Calm Calm - N/A   Clear
2:53 PM 39.0 °F - 18.0 °F 43% 30.14 in 10.0 mi Calm Calm - N/A   Partly Cloudy
3:53 PM 37.9 °F 34.4 °F 23.0 °F 55% 30.15 in 10.0 mi NE 4.6 mph - N/A   Overcast
4:53 PM 37.0 °F - 21.0 °F 52% 30.17 in 10.0 mi Calm Calm - N/A   Partly Cloudy
5:53 PM 35.1 °F - 26.1 °F 70% 30.17 in 10.0 mi Calm Calm - N/A   Overcast
6:53 PM 34.0 °F - 25.0 °F 70% 30.20 in 10.0 mi Calm Calm - N/A   Overcast
7:53 PM 35.1 °F - 21.9 °F 59% 30.22 in 10.0 mi Calm Calm - N/A   Overcast
8:53 PM 32.0 °F - 25.0 °F 75% 30.23 in 10.0 mi Calm Calm - N/A   Partly Cloudy
9:53 PM 32.0 °F - 26.1 °F 79% 30.23 in 8.0 mi Calm Calm - N/A   Clear
10:53 PM 32.0 °F - 26.1 °F 79% 30.24 in 8.0 mi Calm Calm - N/A   Clear
11:53 PM 30.9 °F - 25.0 °F 79% 30.24 in 7.0 mi Calm Calm - N/A   Clear